Location: New Canada
(47.1017°N, 68.5042°W)
Time: 03:41:27
(UTC+00:00)

ITAMSAT 1 - Visible Passes

Search period start: 29 March 2023 00:00
Search period end: 08 April 2023 00:00
Orbit: 784 x 795 km, 98.8° (Epoch: 28 March)

Date Brightness Start Highest point End Pass type
(mag) Time Alt. Az. Time Alt. Az. Time Alt. Az.
29 Mar 10.3 01:40:08 10° WSW 01:43:00 15° W 01:45:55 10° NW visible
29 Mar 8.0 23:28:25 10° SE 23:33:22 46° ENE 23:38:22 10° N visible
30 Mar 9.6 01:08:39 10° SSW 01:13:01 26° W 01:17:24 10° NW visible
31 Mar 8.6 00:38:08 10° S 00:43:08 47° W 00:48:12 10° NNW visible
01 Apr 7.7 00:08:11 10° SSE 00:13:25 84° WSW 00:18:40 10° NNW visible
01 Apr 10.5 01:51:44 10° WSW 01:53:39 12° W 01:55:34 10° WNW visible
01 Apr 7.8 23:38:44 10° SSE 23:43:48 56° ENE 23:48:56 10° N visible
02 Apr 9.9 01:19:37 10° SW 01:23:36 22° W 01:27:37 10° NW visible
03 Apr 9.0 00:48:51 10° SSW 00:53:41 38° W 00:58:34 10° NNW visible
04 Apr 8.0 00:18:43 10° S 00:23:54 69° WSW 00:29:09 10° NNW visible
04 Apr 7.7 23:49:05 10° SSE 23:54:15 68° ENE 23:59:29 10° N visible
05 Apr 10.2 01:30:41 10° SW 01:34:11 18° W 01:37:44 10° NW visible
06 Apr 9.3 00:59:37 10° SSW 01:04:14 32° W 01:08:54 10° NNW visible
07 Apr 8.3 00:29:18 10° S 00:34:24 57° W 00:39:35 10° NNW visible
